This demonstration page uses our WeatherBlox Daily Observations layout. Learn more.

Left ArrowRight Arrow

Hourly Observations for March 13, 2020

Temp ( °F °C ) Dew Point ( °F °C ) Humidity (%) Winds ( mph kmh ) Pressure ( in mb ) Visibility ( mi km ) Precip ( " mm )
12:59 am 00:59 Mostly Cloudy 59 15 55 12.8 87 87 SSE 8 13 29.96 1015 10 16 0.00 0.00
1:59 am 01:59 Cloudy 62 16.7 56 13.3 80 80 SSE 8 13 29.95 1014 10 16 0.00 0.00
2:59 am 02:59 Cloudy 63 17.2 56 13.3 78 78 S 7 11 29.93 1014 10 16 0.00 0.00
3:59 am 03:59 Mostly Cloudy 63 17.2 57 13.9 81 81 S 9 15 29.92 1013 10 16 0.00 0.00
4:59 am 04:59 Mostly Cloudy 63 17.2 57 13.9 81 81 S 10 17 29.91 1013 10 16 0.00 0.00
5:59 am 05:59 Mostly Cloudy 64 17.8 58 14.4 81 81 SSW 12 19 29.91 1013 10 16 0.00 0.00
6:59 am 06:59 Cloudy with Light Rain 64 17.8 59 15 84 84 SSW 12 19 29.92 1013 8 13 0.00 0.00
7:59 am 07:59 Cloudy 64 17.8 59 15 84 84 SSW 10 17 29.91 1013 7 11 0.01 0.25
8:59 am 08:59 Cloudy 64 17.8 60 15.6 87 87 SSW 10 17 29.92 1013 8 13 0.06 1.52
9:59 am 09:59 Mostly Cloudy 66 18.9 61 16.1 84 84 SW 13 20 29.92 1013 9 14 0.00 0.00
10:59 am 10:59 Mostly Cloudy 71 21.7 62 16.7 73 73 SW 9 15 29.93 1013 9 14 0.00 0.00
11:59 am 11:59 Mostly Cloudy 75 23.9 62 16.7 64 64 WSW 12 19 29.92 1013 10 16 0.00 0.00
12:59 pm 12:59 Mostly Cloudy 77 25 62 16.7 60 60 WSW 17 28 29.93 1014 10 16 0.00 0.00
1:59 pm 13:59 Sunny 76 24.4 61 16.1 60 60 WSW 13 20 29.93 1014 10 16 0.00 0.00
2:59 pm 14:59 Mostly Cloudy 75 23.9 61 16.1 62 62 WSW 13 20 29.93 1014 10 16 0.00 0.00
3:59 pm 15:59 Mostly Cloudy 76 24.4 61 16.1 60 60 WSW 10 17 29.93 1014 10 16 0.00 0.00
4:59 pm 16:59 Sunny 76 24.4 60 15.6 58 58 WSW 14 22 29.95 1014 10 16 0.00 0.00
5:59 pm 17:59 Mostly Cloudy 74 23.3 60 15.6 62 62 SW 14 22 29.96 1015 10 16 0.00 0.00
6:59 pm 18:59 Mostly Cloudy 73 22.8 59 15 62 62 SW 7 11 29.99 1016 10 16 0.00 0.00
7:59 pm 19:59 Mostly Cloudy 71 21.7 60 15.6 68 68 WSW 9 15 30.02 1017 10 16 0.00 0.00
8:59 pm 20:59 Mostly Cloudy 71 21.7 60 15.6 68 68 SW 8 13 30.06 1018 10 16 0.00 0.00
9:59 pm 21:59 Mostly Cloudy 68 20 59 15 73 73 WNW 7 11 30.10 1019 10 16 0.00 0.00
10:59 pm 22:59 Partly Cloudy 67 19.4 56 13.3 68 68 W 7 11 30.12 1020 10 16 0.00 0.00
11:59 pm 23:59 Partly Cloudy 64 17.8 49 9.4 58 58 NW 8 13 30.15 1021 10 16 0.00 0.00

Powered by AerisWeather